Location: Bégole
(43.1574°N, 0.3291°E)
Time: 01:37:06
(UTC+00:00)

deb Delta 89 - Pass Details

Date: 24 February 2024
Orbit: 714 x 2021 km, 97.5° (Epoch: 13 April)

Event Time Altitude Azimuth Distance (km) Brightness Sun altitude
Rises 04:39:30 0° 7° (N) 5,433 ? -23.4°
Reaches altitude 10° 04:43:23 10° 357° (N) 4,475 ? -22.7°
Maximum altitude 04:52:01 27° 307° (NW) 3,256 ? -21.1°
Enters shadow 04:54:39 25° 287° (WNW) 3,343 ? -20.7°
